[[{"header":{"parameterUnit":"m.s-1","parameterCategory":1,"la1":30.2991,"la2":30.254,"lo1":-89.0895,"lo2":-89.0444,"dy":0.0017,"dx":0.0017,"nx":28,"ny":28,"refTime":"2024-08-09T03:00:00:Z","depth":0,"parameterNumber":2,"parameterNumberName":"U-component_of_WINDS"},"data":[0,0,0,0,0,0,0,0,0,0,0,0,0,0,0,0,0,0,0,0,0,0,0,0,0,0,0,0,0,0,0,0,0,0,0,0,0,0,0,0,0,0,0,0,0,0,0,0,0,0,0,0,0,0,0,0,0,0,2.4751,2.4753,0,2.4932,2.4934,2.4936,2.4954,2.4952,2.495,2.4948,2.5135,2.5141,2.5148,0,0,0,0,0,0,0,0,0,0,0,0,0,2.4422,2.4428,2.4751,2.4754,2.4756,2.4932,2.4934,2.4937,2.4954,2.4952,2.495,2.4947,2.5132,2.514,2.5148,0,0,0,0,0,0,0,0,0,0,0,0,0,2.458,2.443,2.4751,2.4786,2.4791,2.4931,2.4934,2.4937,2.4955,2.4952,2.4949,2.4946,2.513,2.514,2.515,2.5268,0,0,2.518,2.5185,0,0,0,0,0,0,0,0,2.4571,2.4592,2.4778,2.4784,2.4789,2.4917,2.4886,2.5048,2.4955,2.4892,2.4948,2.4945,2.5065,2.508,2.512,2.5277,2.5285,2.5181,2.5187,2.5192,2.5194,0,0,0,0,0,0,0,2.456,2.4584,2.4823,2.4781,2.4788,2.4792,2.4812,2.4917,2.4992,2.4898,2.4899,2.492,2.5067,2.511,2.5125,2.5288,2.5181,2.519,2.5196,2.52,2.5548,2.5551,0,0,0,0,0,0,2.4542,2.4575,2.4817,2.4828,2.4671,2.4801,2.4822,2.4879,2.4991,2.5005,2.4923,2.4921,2.5095,2.5113,2.5131,2.5275,2.5192,2.5201,2.5207,2.5545,2.5549,2.5552,0,0,0,0,0,0,2.4535,2.4564,2.481,2.4702,2.4734,2.4809,2.4873,2.4884,2.4927,2.501,2.5024,2.4953,2.5093,2.5117,2.5233,2.5282,2.5206,2.5215,2.5541,2.5546,2.5551,2.5565,0,0,0,0,0,0,2.4526,2.4561,2.4607,2.4703,2.474,2.4909,2.4876,2.489,2.4944,2.4943,2.5042,2.5056,2.5093,2.5218,2.5243,2.5294,2.5223,2.5537,2.5543,2.5549,2.5561,2.557,2.5578,0,0,0,0,0,2.4514,2.4605,2.4609,2.4638,2.4798,2.4911,2.4932,2.4973,2.4948,2.4995,2.5048,2.5052,2.5273,2.523,2.5258,2.5313,2.5534,2.5542,2.5549,2.5557,2.5568,2.5577,0,0,0,0,0,0,2.4513,2.4618,2.4624,2.4749,2.4821,2.4914,2.4974,2.4984,2.5065,2.5061,2.5108,2.513,2.5244,2.5291,2.5241,2.5433,2.5401,2.5414,2.5397,2.5409,2.5417,2.5403,2.5231,0,0,0,0,0,2.4527,2.461,2.4698,2.4799,2.4835,2.4898,2.4949,2.4974,2.5051,2.5081,2.5143,2.5218,2.5304,2.5359,2.5443,2.5568,2.5589,2.562,2.5628,2.5635,2.5645,2.5712,2.5727,2.5576,2.5576,2.5576,0,0,2.4557,2.4625,2.4675,2.48,2.4859,2.4943,2.4924,2.5014,2.5077,2.5096,2.5208,2.5256,2.5342,2.5463,2.5519,2.5505,2.5692,2.5644,2.5649,2.5656,2.5721,2.5735,2.5748,2.5581,2.558,2.5579,0,0,2.4655,2.4715,2.4805,2.4864,2.4953,2.4995,2.5016,2.5108,2.514,2.5254,2.5269,2.5345,2.5492,2.5553,2.5603,2.5722,2.5728,2.5748,2.5792,2.5857,2.5869,2.588,2.592,2.5934,2.5759,2.5759,2.5759,0,2.4681,2.4809,2.485,2.494,2.4994,2.5014,2.5105,2.516,2.5273,2.5309,2.5293,2.5477,2.5537,2.567,2.5699,2.574,2.5765,2.5736,2.5864,2.5875,2.5886,2.5924,2.594,2.576,2.576,2.576,2.576,0,2.4835,2.4923,2.4985,2.5091,2.5153,2.5243,2.5298,2.5355,2.5375,2.5418,2.5532,2.5605,2.5703,2.5737,2.5758,2.5873,2.5861,2.5854,2.5823,2.5901,2.5938,2.5953,2.5763,2.5762,2.5761,2.5761,0,0,2.4936,2.5064,2.5086,2.5133,2.5233,2.5301,2.5392,2.5487,2.5534,2.5611,2.5687,2.5811,2.5804,2.5861,2.5888,2.5946,2.6032,2.5931,2.5934,2.5945,2.6161,2.6164,2.6181,2.6038,2.6041,2.6044,2.6153,0,2.5043,2.5203,2.5243,2.538,2.5461,2.5481,2.556,2.5629,2.5672,2.5746,2.5794,2.588,2.5866,2.5899,2.5957,2.6009,2.6076,2.6003,2.6108,2.6111,2.6083,2.6201,2.6205,2.6305,2.6168,2.6171,2.6173,0,2.5188,2.5267,2.5411,2.5498,2.5534,2.5604,2.5693,2.5765,2.5843,2.587,2.5933,2.5955,2.6049,2.6014,2.6144,2.6093,2.6139,2.6171,2.6176,2.6186,2.6145,2.6211,2.6338,2.6351,2.6196,2.6195,2.6193,0,2.5244,2.5386,2.549,2.5531,2.5636,2.5684,2.573,2.5806,2.586,2.5939,2.5974,2.6063,2.6111,2.6179,2.6224,2.6195,2.6349,2.6319,2.6373,2.6371,2.6402,2.6399,2.6535,2.6436,2.6436,2.6436,2.6435,0,2.5357,2.5444,2.5516,2.558,2.5678,2.5723,2.5819,2.5866,2.5933,2.6006,2.603,2.6098,2.6154,2.623,2.6266,2.6366,2.6389,2.6412,2.642,2.6409,2.6405,2.6438,2.6431,2.644,2.6439,2.6438,2.6437,0,2.5435,2.5487,2.5601,2.5691,2.5716,2.5784,2.586,2.5923,2.5966,2.6058,2.6082,2.615,2.624,2.6292,2.6407,2.6431,2.6541,2.6548,2.6514,2.6517,2.6567,2.6561,2.6727,2.675,2.6638,2.6639,2.6639,0,2.5502,2.557,2.5666,2.5716,2.5763,2.5844,2.5898,2.5946,2.6002,2.6096,2.6147,2.6238,2.6313,2.6456,2.6516,2.6603,2.6609,2.6662,2.6623,2.6608,2.6607,2.6601,2.6607,2.6667,2.6669,2.6669,2.667,0,2.5616,2.5638,2.5716,2.5802,2.5867,2.5937,2.6008,2.6047,2.6106,2.6168,2.626,2.6318,2.6434,2.6523,2.6615,2.6663,2.6676,2.6682,2.6699,2.6686,2.6663,2.6673,2.653,2.6678,2.6677,2.6676,2.6676,2.6676,2.5689,2.5749,2.5825,2.5911,2.5968,2.6033,2.6095,2.6146,2.6223,2.632,2.6344,2.644,2.6516,2.664,2.669,2.6765,2.6756,2.6781,2.6787,2.6792,2.6792,2.6653,2.6783,2.6783,2.6783,2.6782,2.6782,0,2.5801,2.5852,2.593,2.6026,2.6093,2.61,2.6178,2.6233,2.6317,2.6387,2.646,2.6564,2.6651,2.6718,2.6807,2.6854,2.6862,2.6876,2.6871,2.6882,2.6796,2.6771,2.6867,2.6867,2.6867,2.6867,2.6867,2.6867,2.5867,2.5968,2.5999,2.6128,2.6178,2.6271,2.6315,2.6374,2.643,2.6545,2.6617,2.666,2.6728,2.6822,2.6901,2.6919,2.6949,2.6961,2.6979,2.6897,2.6888,2.6879,2.6856,2.6968,2.6968,2.7058,2.7059,2.7059]},{"header":{"parameterUnit":"m.s-1","parameterCategory":1,"la1":30.2991,"la2":30.254,"lo1":-89.0895,"lo2":-89.0444,"dy":0.0017,"dx":0.0017,"nx":28,"ny":28,"refTime":"2024-08-09T03:00:00:Z","depth":0,"parameterNumber":3,"parameterNumberName":"V-component_of_WINDS"},"data":[0,0,0,0,0,0,0,0,0,0,0,0,0,0,0,0,0,0,0,0,0,0,0,0,0,0,0,0,0,0,0,0,0,0,0,0,0,0,0,0,0,0,0,0,0,0,0,0,0,0,0,0,0,0,0,0,0,0,2.3043,2.3043,0,2.3043,2.3043,2.3043,2.2997,2.2995,2.2994,2.2993,2.2993,2.2994,2.2995,0,0,0,0,0,0,0,0,0,0,0,0,0,2.2999,2.3,2.3043,2.3043,2.3043,2.3043,2.3043,2.3043,2.2997,2.2995,2.2994,2.2992,2.2992,2.2994,2.2995,0,0,0,0,0,0,0,0,0,0,0,0,0,2.3011,2.3001,2.3043,2.302,2.3018,2.3043,2.3043,2.3043,2.2997,2.2995,2.2993,2.2992,2.2992,2.2994,2.2995,2.3043,0,0,2.3,2.3001,0,0,0,0,0,0,0,0,2.301,2.3012,2.3023,2.3021,2.3019,2.3018,2.3028,2.3043,2.2998,2.3005,2.2993,2.2991,2.3003,2.3003,2.3007,2.3043,2.3043,2.3001,2.3002,2.3002,2.3003,0,0,0,0,0,0,0,2.3009,2.3012,2.3043,2.3023,2.3021,2.3008,2.3008,2.303,2.3014,2.3004,2.3001,2.3002,2.3001,2.3006,2.3007,2.3043,2.3001,2.3002,2.3003,2.3004,2.3114,2.3115,0,0,0,0,0,0,2.3012,2.3012,2.3043,2.3043,2.301,2.3011,2.301,2.302,2.3014,2.3011,2.3003,2.2999,2.3004,2.3005,2.3007,2.3059,2.3002,2.3004,2.3005,2.3112,2.3114,2.3116,0,0,0,0,0,0,2.3011,2.3015,2.3043,2.3026,2.3029,2.3014,2.3025,2.3021,2.3026,2.3013,2.301,2.3011,2.3002,2.3004,2.3033,2.3059,2.3005,2.3006,2.311,2.3112,2.3115,2.3167,0,0,0,0,0,0,2.301,2.3015,2.3034,2.3027,2.303,2.307,2.3027,2.3023,2.3029,2.3024,2.3019,2.3017,2.3001,2.3031,2.3035,2.306,2.3008,2.3107,2.3111,2.3114,2.3163,2.3171,2.3178,0,0,0,0,0,2.3009,2.3049,2.3035,2.3039,2.3053,2.3072,2.3073,2.3055,2.3031,2.3049,2.304,2.3017,2.3056,2.3035,2.3039,2.3065,2.3105,2.311,2.3114,2.3159,2.3169,2.3178,0,0,0,0,0,0,2.3059,2.3048,2.3032,2.3071,2.3073,2.3064,2.3086,2.3067,2.3075,2.307,2.3046,2.3045,2.3077,2.3074,2.3051,2.3109,2.3076,2.3082,2.3109,2.3119,2.3127,2.3126,2.3009,0,0,0,0,0,2.3075,2.3092,2.3081,2.3116,2.3118,2.3102,2.3109,2.3095,2.3095,2.3096,2.3089,2.309,2.3102,2.3111,2.3121,2.3163,2.316,2.3182,2.319,2.3197,2.3201,2.322,2.3229,2.313,2.313,2.313,0,0,2.3107,2.3103,2.3115,2.3126,2.3125,2.3142,2.3103,2.3123,2.3134,2.3099,2.3125,2.312,2.312,2.3154,2.3169,2.3153,2.3228,2.3202,2.3207,2.3208,2.3225,2.3235,2.3243,2.3133,2.3132,2.3132,0,0,2.3174,2.3174,2.3202,2.3202,2.3201,2.319,2.3197,2.3191,2.3186,2.3212,2.3185,2.3199,2.3221,2.3221,2.3224,2.3289,2.3267,2.3293,2.3333,2.3352,2.336,2.3366,2.3387,2.3396,2.3298,2.3298,2.3298,0,2.3214,2.3239,2.3219,2.324,2.3245,2.3213,2.324,2.3241,2.3244,2.3248,2.3229,2.3255,2.3252,2.3285,2.3301,2.3305,2.3311,2.3293,2.336,2.3367,2.3373,2.3392,2.3401,2.3301,2.3301,2.33,2.33,0,2.3287,2.3305,2.3327,2.333,2.3338,2.3362,2.3344,2.3354,2.3339,2.3329,2.3355,2.3351,2.3359,2.3366,2.3352,2.3397,2.3386,2.3365,2.3331,2.3386,2.3404,2.3411,2.3305,2.3304,2.3303,2.3303,0,0,2.3386,2.3376,2.3385,2.3384,2.3381,2.3393,2.3416,2.3423,2.3431,2.3434,2.3451,2.347,2.3449,2.3452,2.3438,2.3454,2.3503,2.343,2.343,2.3442,2.355,2.3565,2.3574,2.349,2.3491,2.3492,2.3549,0,2.3449,2.3486,2.3467,2.3506,2.3521,2.349,2.3509,2.3508,2.35,2.351,2.3501,2.3514,2.3487,2.3488,2.3504,2.3494,2.3524,2.349,2.3503,2.3504,2.3502,2.3584,2.36,2.3654,2.3556,2.3557,2.3558,0,2.3527,2.3532,2.3572,2.3564,2.3569,2.3587,2.3591,2.3602,2.36,2.3593,2.3596,2.3577,2.3596,2.3565,2.3591,2.3568,2.3572,2.3568,2.357,2.3569,2.3533,2.3583,2.3671,2.3678,2.357,2.3569,2.3568,0,2.3592,2.3609,2.3634,2.3636,2.3627,2.364,2.3637,2.3633,2.3638,2.3642,2.3645,2.3652,2.3655,2.366,2.3642,2.3621,2.367,2.3637,2.3663,2.3663,2.3673,2.3672,2.3761,2.368,2.3679,2.3679,2.3679,0,2.3663,2.3688,2.3663,2.3679,2.3705,2.3684,2.3711,2.3704,2.3701,2.3714,2.3689,2.3701,2.3678,2.3688,2.3675,2.3697,2.37,2.3693,2.3689,2.3694,2.3695,2.3695,2.369,2.3681,2.3681,2.3681,2.368,0,2.3739,2.3724,2.3749,2.3738,2.3736,2.3756,2.3747,2.376,2.375,2.3766,2.3769,2.3753,2.3763,2.3746,2.3755,2.3746,2.3776,2.3768,2.3777,2.3773,2.3799,2.3796,2.389,2.39,2.3814,2.3815,2.3816,0,2.3784,2.3802,2.3793,2.38,2.3798,2.381,2.3814,2.3794,2.38,2.3798,2.3811,2.3819,2.3824,2.3842,2.3831,2.3837,2.3827,2.3859,2.3827,2.3832,2.3825,2.3823,2.3824,2.3865,2.3866,2.3867,2.3868,0,2.3865,2.3856,2.3864,2.3869,2.3875,2.3878,2.3879,2.3886,2.3864,2.3871,2.3881,2.3885,2.3894,2.3901,2.3904,2.3901,2.388,2.3878,2.3884,2.3889,2.3892,2.3888,2.3792,2.3875,2.3875,2.3874,2.3874,2.3873,2.3926,2.394,2.3935,2.3944,2.3942,2.3943,2.3954,2.3945,2.3953,2.3958,2.3945,2.3958,2.3954,2.3956,2.3954,2.3963,2.3949,2.3958,2.396,2.3962,2.3965,2.3892,2.3964,2.3963,2.3963,2.3963,2.3963,0,2.4003,2.3999,2.4007,2.4008,2.4015,2.3995,2.3995,2.4002,2.4013,2.4011,2.4016,2.4027,2.4034,2.4023,2.4028,2.4037,2.4028,2.4039,2.4037,2.4036,2.3978,2.3972,2.4047,2.4047,2.4047,2.4047,2.4047,2.4046,2.4045,2.4066,2.4057,2.4077,2.4072,2.4083,2.4084,2.4085,2.4083,2.4096,2.4101,2.4094,2.4088,2.4092,2.4097,2.4094,2.4096,2.411,2.4103,2.4049,2.4041,2.4033,2.4026,2.4111,2.4112,2.416,2.4161,2.4161]}]]